Weather History for Jackson, KY

Change the Weather History Date:

Sunday, February 17, 2013

  Actual Average Record
Temperature  
Mean Temperature 25 °F 39 °F  
Max Temperature 33 °F 48 °F 70 °F (2011)
Min Temperature 17 °F 30 °F 14 °F (1996)
Degree Days  
Heating Degree Days 40 26  
Month to date heating degree days 477 468  
Since 1 July heating degree days 2933 3034  
Cooling Degree Days 0 0  
Month to date cooling degree days 0 0  
Year to date cooling degree days 0 0  
Moisture  
Dew Point 11 °F    
Average Humidity 55    
Maximum Humidity 80    
Minimum Humidity 29    
Precipitation  
Precipitation T in 0.14 in 1.15 in (1986)
Month to date precipitation 0.82 2.26  
Year to date precipitation 6.55 5.87  
Snow  
Snow 0.20 in 0.20 in - ()
Month to date snowfall 4.3 4.7  
Since 1 July snowfall 8.3 17.3  
Snow Depth T in    
Sea Level Pressure  
Sea Level Pressure 30.16 in    
Wind  
Wind Speed 4 mph (WNW)    
Max Wind Speed 14 mph    
Max Gust Speed 20 mph    
Visibility 8 miles    
Events Snow    
T = Trace of Precipitation, MM = Missing Value Source: NWS Daily Summary

Daily Weather History Graph

Daily Weather History Graph

Search for Another Location

Airport:

Trip Planner

Search our weather history database for the weather conditions in past years. The results will help you decide how hot, cold, wet, or windy it might be!

Date:

Astronomy

Feb. 17, 2013 Rise Set
Actual Time 7:19 AM EST 6:14 PM EST
Civil Twilight 6:53 AM EST 6:41 PM EST
Nautical Twilight 6:22 AM EST 7:12 PM EST
Astronomical Twilight 5:52 AM EST 7:42 PM EST
Moon 11:21 AM EST (2/17) 1:00 AM EST (2/17)
Length of Visible Light 11h 48m
Length of Day
10h 55m
Waxing Crescent, 49% of the Moon is Illuminated
Feb 17
Waxing Crescent
Feb 17
First Quarter
Feb 25
Full
Mar 4
Last Quarter
Mar 11
New

Hourly Weather History & Observations

Time (EST) Temp. Windchill Dew Point Humidity Pressure Visibility Wind Dir Wind Speed Gust Speed Precip Events Conditions
12:04 AM 21.2 °F 11.7 °F 12.2 °F 68% 30.07 in 1.8 mi NW 8.1 mph 16.1 mph 0.00 in Snow Light Snow
12:11 AM 19.4 °F 9.5 °F 14.0 °F 80% 30.07 in 1.5 mi NW 8.1 mph - 0.00 in Snow Light Snow
12:13 AM 19.4 °F 11.5 °F 12.2 °F 74% 30.07 in 2.0 mi Variable 5.8 mph - 0.00 in Snow Light Snow
12:21 AM 19.4 °F 9.5 °F 12.2 °F 74% 30.08 in 1.5 mi NNW 8.1 mph 19.6 mph 0.00 in Snow Light Snow
12:33 AM 19.4 °F 12.8 °F 14.0 °F 80% 30.08 in 2.0 mi Variable 4.6 mph - 0.00 in Snow Light Snow
12:40 AM 19.4 °F 12.8 °F 15.8 °F 86% 30.08 in 3.0 mi NW 4.6 mph - 0.00 in Snow Light Snow
12:53 AM 19.9 °F 11.1 °F 14.0 °F 78% 30.14 in 6.0 mi WNW 6.9 mph - 0.00 in Snow Light Snow
1:53 AM 19.0 °F - 10.9 °F 71% 30.13 in 10.0 mi Calm Calm - 0.00 in   Overcast
2:53 AM 19.0 °F - 12.0 °F 74% 30.12 in 10.0 mi Calm Calm - N/A   Overcast
3:53 AM 19.0 °F - 12.0 °F 74% 30.12 in 10.0 mi Calm Calm - N/A   Overcast
4:34 AM 19.4 °F 11.5 °F 12.2 °F 74% 30.08 in 2.5 mi WNW 5.8 mph - 0.00 in Snow Light Snow
4:38 AM 17.6 °F 12.3 °F 12.2 °F 79% 30.08 in 1.5 mi WNW 3.5 mph - 0.00 in Snow Light Snow
4:44 AM 17.6 °F - 12.2 °F 79% 30.08 in 2.5 mi Calm Calm - 0.00 in Snow Light Snow
4:51 AM 17.6 °F - 12.2 °F 79% 30.08 in 8.0 mi Calm Calm - 0.00 in   Overcast
4:53 AM 18.0 °F - 12.0 °F 78% 30.13 in 9.0 mi Calm Calm - 0.00 in   Overcast
5:04 AM 17.6 °F - 12.2 °F 79% 30.08 in 10.0 mi Calm Calm - N/A   Overcast
5:53 AM 19.0 °F - 14.0 °F 81% 30.14 in 10.0 mi Calm Calm - 0.00 in   Overcast
6:53 AM 17.1 °F - 12.9 °F 84% 30.17 in 10.0 mi Calm Calm - N/A   Overcast
7:53 AM 17.6 °F - 12.2 °F 79% 30.13 in 10.0 mi Calm Calm - N/A   Overcast
8:23 AM 17.6 °F - 14.0 °F 86% 30.15 in 4.0 mi Calm Calm - 0.00 in Snow Light Snow
8:33 AM 19.4 °F 12.8 °F 14.0 °F 80% 30.15 in 5.0 mi WNW 4.6 mph - 0.00 in Snow Light Snow
8:53 AM 19.0 °F 12.3 °F 14.0 °F 81% 30.21 in 9.0 mi WNW 4.6 mph - 0.00 in Snow Light Snow
9:33 AM 19.4 °F 14.3 °F 12.2 °F 74% 30.17 in 10.0 mi WNW 3.5 mph - N/A   Mostly Cloudy
9:53 AM 19.9 °F 13.4 °F 12.0 °F 71% 30.23 in 10.0 mi NW 4.6 mph - N/A   Overcast
10:22 AM 21.2 °F 12.6 °F 12.2 °F 68% 30.19 in 9.0 mi West 6.9 mph - 0.00 in   Overcast
10:53 AM 24.1 °F 16.0 °F 12.0 °F 60% 30.25 in 10.0 mi West 6.9 mph 16.1 mph 0.00 in   Overcast
11:53 AM 25.0 °F 17.1 °F 12.0 °F 58% 30.25 in 10.0 mi Variable 6.9 mph - N/A   Mostly Cloudy
12:53 PM 25.0 °F 16.3 °F 7.0 °F 46% 30.24 in 10.0 mi WNW 8.1 mph - N/A   Clear
1:53 PM 30.0 °F 22.4 °F 10.0 °F 43% 30.22 in 10.0 mi WSW 8.1 mph - N/A   Partly Cloudy
2:53 PM 30.9 °F 21.7 °F 5.0 °F 33% 30.21 in 10.0 mi WNW 11.5 mph 18.4 mph N/A   Clear
3:53 PM 33.1 °F 24.4 °F 6.1 °F 32% 30.22 in 10.0 mi West 11.5 mph 18.4 mph N/A   Clear
4:53 PM 33.1 °F 28.7 °F 5.0 °F 31% 30.22 in 10.0 mi Variable 4.6 mph - N/A   Clear
5:53 PM 30.9 °F 25.2 °F 5.0 °F 33% 30.22 in 10.0 mi West 5.8 mph - N/A   Clear
6:53 PM 28.9 °F 25.2 °F 6.1 °F 38% 30.24 in 10.0 mi WSW 3.5 mph - N/A   Clear
7:53 PM 28.0 °F 24.2 °F 8.1 °F 43% 30.24 in 10.0 mi West 3.5 mph - N/A   Clear
8:53 PM 28.0 °F - 6.1 °F 39% 30.25 in 10.0 mi Calm Calm - N/A   Clear
9:53 PM 27.0 °F - 6.1 °F 41% 30.26 in 10.0 mi Calm Calm - N/A   Clear
10:53 PM 27.0 °F - 6.1 °F 41% 30.26 in 10.0 mi Calm Calm - N/A   Clear